Current Version              Previous Version:    01  02  03  04  05  06  07  08  09  10  11  12  13  14  15  16  17  18  19  20  21  22  23  24  25  26  27  28  29  30  
   31  32  33  34  35  36  37  38  39  40  41  42  43  44  45  46  47  48  49  50  51  52  53  54  55  56  57  58  59  60  

[Printable]
795
ASUS44 KFWD 181310
RWRTX
NORTH TEXAS HOURLY WEATHER ROUNDUP
NATIONAL WEATHER SERVICE FORT WORTH TX
800 AM CDT THU SEP 18 2014

NOTE: "FAIR" INDICATES FEW OR NO CLOUDS BELOW 12,000 FEET WITH NO
SIGNIFICANT WEATHER AND/OR OBSTRUCTIONS TO VISIBILITY.

TXZ118-119-181400-
DALLAS/FORT WORTH METROPLEX

CITY           SKY/WX    TMP DP  RH WIND       PRES   REMARKS
DFW AIRPORT    MOCLDY    75  72  90 SE6       29.89R
DALLAS LOVE    CLOUDY    76  72  87 S6        29.90R
FTW MEACHAM    MOCLDY    75  71  87 S8        29.88R
DAL-EXECUTIVE  CLOUDY    76  72  87 S3        29.89R
FTW-ALLIANCE   MOCLDY    72  71  97 SE5       29.89R
FTW-NAS-JRB    CLOUDY    77  69  76 S8        29.93R
FTW-SPINKS     CLOUDY    73  72  94 CALM      29.91R FOG
ARLINGTON      CLOUDY    75  71  87 S5        29.89R
GRAND PRAIRIE  CLOUDY    75  73  94 MISG      29.90R
ADDISON        CLOUDY    75  72  88 E5        29.91
LANCASTER      CLOUDY    73  71  92 SE3       29.90R FOG
$$

TXZ091>094-102>105-117-120-121-131>134-181400-
NORTH CENTRAL TEXAS

CITY           SKY/WX    TMP DP  RH WIND       PRES   REMARKS
SHRMAN/DENISON PTCLDY    71  67  86 CALM      29.93R
GAINESVILLE    PTCLDY    72  69  90 E3        29.93R
BOWIE          CLOUDY    72  71  97 CALM      29.91R
BRIDGEPORT     CLOUDY    72  72 100 CALM      29.92R FOG
DECATUR        MOCLDY    72  71  99 E6        29.91R FOG
DENTON         PTCLDY    72  70  93 CALM      29.90R
MCKINNEY       PTCLDY    72  68  87 NE3       29.91R
GREENVILLE     CLOUDY    72  64  78 CALM      29.91R
ROCKWALL       MOCLDY    72  70  94 E6        29.90R
TERRELL        CLOUDY    75  73  93 E3        29.92R
WAXAHACHIE     CLOUDY    73  72  95 CALM      29.90S FOG
CLEBURNE       CLOUDY    72  72 100 S7        29.91S FOG
GRANBURY       MOCLDY    74  71  90 SE5       29.91R
$$

TXZ083>090-098>101-113>116-127>130-139>142-154-155-181400-
WESTERN NORTH TEXAS

CITY           SKY/WX    TMP DP  RH WIND       PRES   REMARKS
WICHITA FALLS  CLOUDY    72  70  93 E5        29.90R
WF-KICKAPOO    CLOUDY    73  71  95 E5        29.92R
VERNON         CLOUDY    73  69  88 CALM      29.93R
ABILENE        CLOUDY    72  69  90 S5        29.93R
ABILENE-DYESS  CLOUDY    72  68  88 S3        29.92R
BRECKENRIDGE   CLOUDY    74  72  95 CALM      29.91R
GRAHAM         MOCLDY    72  70  93 CALM      29.89R
MINERAL WELLS  CLOUDY    72  70  93 SE6       29.89R
STEPHENVILLE   MOCLDY    71  68  91 CALM      29.94R
COMANCHE       MOCLDY    69  69 100 CALM      29.92R
BROWNWOOD      MOCLDY    70  68  94 SE3       29.91R
COLEMAN        MOCLDY    71  69  94 CALM      29.93R
BRADY          CLEAR     70  70 100 CALM      29.92R
$$

TXZ143>147-156>162-174-175-181400-
CENTRAL TEXAS

CITY           SKY/WX    TMP DP  RH WIND       PRES   REMARKS
WACO           MOCLDY    74  73  97 E5        29.90R FOG
WACO-TSTC      PTCLDY    75  73  94 CALM      29.90R FOG
WACO-MCGREGOR  MOCLDY    73  70  88 SE3       29.91R
HILLSBORO      CLOUDY    74  72  92 S7        29.90S FOG
CORSICANA      CLOUDY    75  73  93 SE7       29.91R
MEXIA          CLOUDY    74  73  99 CALM      29.90R FOG
HEARNE         CLOUDY    75  74  98 CALM      29.89S
CAMERON        CLOUDY    75  74  98 E3        29.89R FOG
TEMPLE         CLOUDY    73  70  88 E7        29.89R
KILLEEN        CLOUDY    73  72  94 SE3       29.91R
KILLEEN-SKYLRK CLOUDY    73  70  88 E3        29.90R
FORT HOOD      CLOUDY    75  73  94 E5        29.91R
GATESVILLE     CLOUDY    73  73 100 SE3       29.92R FOG
HAMILTON       FOG       71  71 100 SE8       29.92R VSB 1/2
LAMPASAS       PTCLDY    71  70  97 CALM      29.91R
$$

TXZ095>097-106>112-122>126-135>138-148>153-164>167-181400-
EAST TEXAS

CITY           SKY/WX    TMP DP  RH WIND       PRES   REMARKS
PARIS          CLOUDY    70  63  78 NE8       29.94R
SULPHUR SPRNGS CLOUDY    73  69  88 NE3       29.94R
MOUNT PLEASANT CLOUDY    72  71  96 CALM      29.93R
GILMER         CLOUDY    73  73 100 CALM      29.94R
MINEOLA        CLOUDY    73  73 100 CALM      29.92R
TYLER          LGT RAIN  74  72  93 S6        29.91R
LONGVIEW       LGT RAIN  73  71  93 S12       29.91R FOG
MARSHALL       CLOUDY    76  73  91 S6        29.94R
ATHENS         CLOUDY    72  72 100 CALM      29.90R
PALESTINE      CLOUDY    74  74 100 CALM      29.92S
JACKSONVILLE   CLOUDY    74  73  96 CALM      29.94R FOG
HENDERSON      CLOUDY    73  73 100 CALM      29.94R FOG
NACOGDOCHES    CLOUDY    73  72  94 CALM      29.93R VSB 1/2
LUFKIN         CLOUDY    76  73  91 NE3       29.92R FOG
$$

SUPPLEMENTAL OBSERVATIONS (CENTRAL)

CITY           SKY/WX    TMP DP  RH WIND       PRES   REMARKS
CADDO GRASSLND   N/A     68  64  88 NE2         N/A
PAT MAYSE LAKE   N/A     66  64  94 N5          N/A
GREENVILLE       N/A     72  68  88 NE5         N/A
CEDAR HILL       N/A     75  72  88 SE3         N/A
MCGREGOR         N/A     73  72  94 E5          N/A
$$

SUPPLEMENTAL OBSERVATIONS (WEST)

CITY           SKY/WX    TMP DP  RH WIND       PRES   REMARKS
LBJ GRASSLAND    N/A     73  68  83 E3          N/A
HAMBY            N/A     72  68  88 NE2         N/A
IVIE RESERVOIR   N/A     72  66  83 E3          N/A
COLORADO BEND    N/A     72  68  88 S3          N/A
$$

SUPPLEMENTAL OBSERVATIONS (EAST)

CITY           SKY/WX    TMP DP  RH WIND       PRES   REMARKS
CLARKSVILLE      N/A     70  64  83 CALM        N/A
TEXARKANA        N/A     73  68  83 CALM        N/A
LINDEN           N/A     73  70  88 CALM        N/A
GILMER           N/A     73  70  88 CALM        N/A
HENDERSON        N/A     73  72  94 SE3         N/A
LUFKIN           N/A     73  72  94 MISG        N/A
N SABINE NF      N/A     72  70  94 MISG        N/A
S SABINE NF      N/A     73  72  94 NE1         N/A
$$

SUPPLEMENTAL OBSERVATIONS ARE A COLLECTION OF AUTOMATED INSTRUMENTS
THAT ARE MAINTAINED BY A VARIETY OF FEDERAL AND STATE AGENCIES.
CERTAIN ELEMENTS...SUCH AS HUMIDITY VALUES AND SUSTAINED WIND
SPEEDS...MAY BE APPROXIMATED.